COSMOS 2491 DEB, 57550

Orbit data source: Space-Track

COSMOS 2491 DEB, 57550 is space debris in LEO originally from a launch on Wed, 25 Dec 2013 UTC launched from the Plesetsk Missile And Space Complex (PKMTR). Debris objects in space refer to the collection of defunct objects orbiting the Earth. Examples of debris include non-operational satellites, rocket bodies, and fragments generated from explosions, collisions, or faulty payload assembly.

Loading next visibility...
Identifier
57550, 2013-076AM
Orbit
LEO
Country
Flag of CISCIS
Related business
Manufacturer
TsNIIKhM
Mission
Spacecraft
Bus & Motor
Unknown
Mass
Unknown
Launch date (UTC)
2013-12-25 (12 years ago)
Launch vehicle
Unknown
Launch site
Plesetsk Missile And Space Complex (PKMTR)
Object type
Payload
Rocket body
Debris
Shape & HBR
Unknown
Radar Cross Section
Small (<0.1 m²)

Expand to show TLE details & history
Last TLE update: 3 weeks ago

TLE from 3 weeks ago
0 COSMOS 2491 DEB
1 57550U 13076AM  25218.97024038  .00000950  00000-0  41036-2 0  9990
2 57550  82.4414 305.8425 0217939 123.5616 238.6501 12.73283580104075
Epoch: 2025-08-06T23:17Z
TLE epoch observation values (Epoch: 2025-08-06T23:17:08.768Z)
Latitude
-0.00005°
Longitude
0.8146°
Altitude
1,461.829 km
Speed
7.09 km/s
True Right ascension
20h 23m 22s
True Declination
0° 00' 00"
Sunlit
Object was in full shadow at epoch
Visualization orbit readout
Latitude
Unknown
Longitude
Unknown
Altitude
Unknown
Speed
Unknown
Apparent Right ascension
Unknown
Apparent Declination
Unknown
Sunlit
N/A
Visualization observer readout
Local Sidereal Time
16:14:47
Azimuth
Unknown
Elevation
Unknown
Doppler factor
Unknown
Orbital elements
Apogee altitude
1,534.674 km
Perigee altitude
1,197.129 km
Semi-major axis
7,744.038 km
Eccentricity
0.02179
Inclination
82.4414°
RAAN
305.8425°
Arg. of periapsis
123.5616°
True anomaly
236.5476°
Mean anomaly
238.6501°
Eccentric anomaly
237.59584°
Mean motion
3.18487 °/min
Orbital period
113.03 mins
BSTAR
0.0041036
Loading maneuver chart data...
Computing Atmospheric mass density...
Loading historical data...
Loading historical data...
Loading historical data...
Loading historical data...
Loading historical data...
Loading historical data...
Loading historical data...

Documentation

Showing up to 5 results
|